date,time,SUV Intensity [MED/Hr],UV Index,Daily total [MED],Since Last [MED]
12/09/2022,00:00:33,0.000,0.0,0.0,0.0
12/09/2022,00:01:32,0.001,0.0,0.0,0.0
12/09/2022,00:02:32,-0.000,0.0,0.0,0.0
12/09/2022,00:03:32,0.000,0.0,0.0,0.0
12/09/2022,00:04:32,-0.001,0.0,0.0,0.0
12/09/2022,00:05:32,-0.000,0.0,0.0,0.0
12/09/2022,00:06:32,-0.000,0.0,0.0,0.0
12/09/2022,00:07:32,-0.001,0.0,0.0,0.0
12/09/2022,00:08:32,0.000,0.0,0.0,0.0
12/09/2022,00:09:23,0.000,0.0,0.0,0.0
12/09/2022,00:10:33,0.000,0.0,0.0,0.0
12/09/2022,00:11:40,0.000,0.0,0.0,0.0
12/09/2022,00:12:32,-0.001,0.0,0.0,0.0
12/09/2022,00:13:32,0.000,0.0,0.0,0.0
12/09/2022,00:14:32,0.000,0.0,0.0,0.0
12/09/2022,00:15:33,-0.001,0.0,0.0,0.0
12/09/2022,00:16:32,0.000,0.0,0.0,0.0
12/09/2022,00:17:32,-0.001,0.0,0.0,0.0
12/09/2022,00:18:33,0.000,0.0,0.0,0.0
12/09/2022,00:19:32,-0.000,0.0,0.0,0.0
12/09/2022,00:20:32,0.000,0.0,0.0,0.0
12/09/2022,00:21:32,0.000,0.0,0.0,0.0
12/09/2022,00:22:32,-0.001,0.0,0.0,0.0
12/09/2022,00:23:32,0.000,0.0,0.0,0.0
12/09/2022,00:24:32,0.000,0.0,0.0,0.0
12/09/2022,00:25:32,0.000,0.0,0.0,0.0
12/09/2022,00:26:32,0.000,0.0,0.0,0.0
12/09/2022,00:27:33,0.000,0.0,0.0,0.0
12/09/2022,00:28:32,0.000,0.0,0.0,0.0
12/09/2022,00:29:32,0.000,0.0,0.0,0.0
12/09/2022,00:30:33,0.001,0.0,0.0,0.0
12/09/2022,00:31:32,-0.001,0.0,0.0,0.0
12/09/2022,00:32:32,0.000,0.0,0.0,0.0
12/09/2022,00:33:32,0.000,0.0,0.0,0.0
12/09/2022,00:34:32,0.000,0.0,0.0,0.0
12/09/2022,00:35:32,0.000,0.0,0.0,0.0
12/09/2022,00:36:40,0.000,0.0,0.0,0.0
12/09/2022,00:37:32,-0.001,0.0,0.0,0.0
12/09/2022,00:38:23,-0.000,0.0,0.0,0.0
12/09/2022,00:39:33,0.000,0.0,0.0,0.0
12/09/2022,00:40:32,0.000,0.0,0.0,0.0
12/09/2022,00:41:32,0.000,0.0,0.0,0.0
12/09/2022,00:42:32,-0.001,0.0,0.0,0.0
12/09/2022,00:43:32,0.000,0.0,0.0,0.0
12/09/2022,00:44:32,0.000,0.0,0.0,0.0
12/09/2022,00:45:40,0.001,0.0,0.0,0.0
12/09/2022,00:46:33,0.000,0.0,0.0,0.0
12/09/2022,00:47:34,0.001,0.0,0.0,0.0
12/09/2022,00:48:32,0.000,0.0,0.0,0.0
12/09/2022,00:49:32,-0.001,0.0,0.0,0.0
12/09/2022,00:50:33,0.000,0.0,0.0,0.0
12/09/2022,00:51:32,0.000,0.0,0.0,0.0
12/09/2022,00:52:32,0.000,0.0,0.0,0.0
12/09/2022,00:53:32,0.000,0.0,0.0,0.0
12/09/2022,00:54:32,0.000,0.0,0.0,0.0
12/09/2022,00:55:40,-0.000,0.0,0.0,0.0
12/09/2022,00:56:32,-0.001,0.0,0.0,0.0
12/09/2022,00:57:32,0.000,0.0,0.0,0.0
12/09/2022,00:58:32,0.000,0.0,0.0,0.0
12/09/2022,00:59:33,0.000,0.0,0.0,0.0
12/09/2022,01:00:32,0.000,0.0,0.0,0.0
12/09/2022,01:01:32,0.000,0.0,0.0,0.0
12/09/2022,01:02:33,0.000,0.0,0.0,0.0
12/09/2022,01:03:32,-0.000,0.0,0.0,0.0
12/09/2022,01:04:32,0.000,0.0,0.0,0.0
12/09/2022,01:05:32,0.000,0.0,0.0,0.0
12/09/2022,01:06:33,0.000,0.0,0.0,0.0
12/09/2022,01:07:32,0.000,0.0,0.0,0.0
12/09/2022,01:08:32,0.001,0.0,0.0,0.0
12/09/2022,01:09:32,0.001,0.0,0.0,0.0
12/09/2022,01:10:40,0.000,0.0,0.0,0.0
12/09/2022,01:11:31,0.000,0.0,0.0,0.0
12/09/2022,01:12:32,0.000,0.0,0.0,0.0
12/09/2022,01:13:41,0.000,0.0,0.0,0.0
12/09/2022,01:14:31,0.000,0.0,0.0,0.0
12/09/2022,01:15:32,-0.001,0.0,0.0,0.0
12/09/2022,01:16:32,0.000,0.0,0.0,0.0
12/09/2022,01:17:32,-0.000,0.0,0.0,0.0
12/09/2022,01:18:32,0.000,0.0,0.0,0.0
12/09/2022,01:19:32,-0.001,0.0,0.0,0.0
12/09/2022,01:20:33,0.000,0.0,0.0,0.0
12/09/2022,01:21:32,0.000,0.0,0.0,0.0
12/09/2022,01:22:32,0.000,0.0,0.0,0.0
12/09/2022,01:23:41,0.000,0.0,0.0,0.0
12/09/2022,01:24:32,0.000,0.0,0.0,0.0
12/09/2022,01:25:32,0.000,0.0,0.0,0.0
12/09/2022,01:26:32,0.000,0.0,0.0,0.0
12/09/2022,01:27:33,-0.001,0.0,0.0,0.0
12/09/2022,01:28:32,0.000,0.0,0.0,0.0
12/09/2022,01:29:32,0.000,0.0,0.0,0.0
12/09/2022,01:30:32,0.000,0.0,0.0,0.0
12/09/2022,01:31:33,0.000,0.0,0.0,0.0
12/09/2022,01:32:32,-0.001,0.0,0.0,0.0
12/09/2022,01:33:32,0.000,0.0,0.0,0.0
12/09/2022,01:34:33,0.000,0.0,0.0,0.0
12/09/2022,01:35:32,-0.000,0.0,0.0,0.0
12/09/2022,01:36:32,0.000,0.0,0.0,0.0
12/09/2022,01:37:32,0.000,0.0,0.0,0.0
12/09/2022,01:38:40,0.000,0.0,0.0,0.0
12/09/2022,01:39:32,0.000,0.0,0.0,0.0
12/09/2022,01:40:32,0.000,0.0,0.0,0.0
12/09/2022,01:41:40,0.000,0.0,0.0,0.0
12/09/2022,01:42:32,0.000,0.0,0.0,0.0
12/09/2022,01:43:33,0.000,0.0,0.0,0.0
12/09/2022,01:44:32,-0.000,0.0,0.0,0.0
12/09/2022,01:45:32,0.000,0.0,0.0,0.0
12/09/2022,01:46:33,0.001,0.0,0.0,0.0
12/09/2022,01:47:32,0.000,0.0,0.0,0.0
12/09/2022,01:48:32,0.000,0.0,0.0,0.0
12/09/2022,01:49:33,0.000,0.0,0.0,0.0
12/09/2022,01:50:32,0.000,0.0,0.0,0.0
12/09/2022,01:51:41,0.000,0.0,0.0,0.0
12/09/2022,01:52:32,-0.001,0.0,0.0,0.0
12/09/2022,01:53:32,0.000,0.0,0.0,0.0
12/09/2022,01:54:33,0.000,0.0,0.0,0.0
12/09/2022,01:55:33,0.000,0.0,0.0,0.0
12/09/2022,01:56:33,0.000,0.0,0.0,0.0
12/09/2022,01:57:32,0.000,0.0,0.0,0.0
12/09/2022,01:58:32,-0.001,0.0,0.0,0.0
12/09/2022,01:59:32,-0.000,0.0,0.0,0.0
12/09/2022,02:00:33,0.000,0.0,0.0,0.0
12/09/2022,02:01:36,0.000,0.0,0.0,0.0
12/09/2022,02:02:39,0.001,0.0,0.0,0.0
12/09/2022,02:03:32,-0.001,0.0,0.0,0.0
12/09/2022,02:04:32,0.001,0.0,0.0,0.0
12/09/2022,02:05:32,0.000,0.0,0.0,0.0
12/09/2022,02:06:32,0.000,0.0,0.0,0.0
12/09/2022,02:07:32,-0.001,0.0,0.0,0.0
12/09/2022,02:08:33,0.000,0.0,0.0,0.0
12/09/2022,02:09:40,0.000,0.0,0.0,0.0
12/09/2022,02:10:32,-0.001,0.0,0.0,0.0
12/09/2022,02:11:40,0.000,0.0,0.0,0.0
12/09/2022,02:12:40,0.000,0.0,0.0,0.0
12/09/2022,02:13:32,0.001,0.0,0.0,0.0
12/09/2022,02:14:32,-0.001,0.0,0.0,0.0
12/09/2022,02:15:32,0.001,0.0,0.0,0.0
12/09/2022,02:16:32,-0.001,0.0,0.0,0.0
12/09/2022,02:17:32,-0.001,0.0,0.0,0.0
12/09/2022,02:18:33,0.000,0.0,0.0,0.0
12/09/2022,02:19:32,-0.000,0.0,0.0,0.0
12/09/2022,02:20:33,0.000,0.0,0.0,0.0
12/09/2022,02:21:32,-0.001,0.0,0.0,0.0
12/09/2022,02:22:33,0.000,0.0,0.0,0.0
12/09/2022,02:23:32,0.000,0.0,0.0,0.0
12/09/2022,02:24:41,0.000,0.0,0.0,0.0
12/09/2022,02:25:32,-0.001,0.0,0.0,0.0
12/09/2022,02:26:33,0.000,0.0,0.0,0.0
12/09/2022,02:27:32,0.000,0.0,0.0,0.0
12/09/2022,02:28:32,0.000,0.0,0.0,0.0
12/09/2022,02:29:33,0.000,0.0,0.0,0.0
12/09/2022,02:30:32,0.000,0.0,0.0,0.0
12/09/2022,02:31:32,0.000,0.0,0.0,0.0
12/09/2022,02:32:33,-0.001,0.0,0.0,0.0
12/09/2022,02:33:32,-0.001,0.0,0.0,0.0
12/09/2022,02:34:41,0.000,0.0,0.0,0.0
12/09/2022,02:35:32,0.000,0.0,0.0,0.0
12/09/2022,02:36:32,0.001,0.0,0.0,0.0
12/09/2022,02:37:32,0.000,0.0,0.0,0.0
12/09/2022,02:38:33,0.000,0.0,0.0,0.0
12/09/2022,02:39:32,0.000,0.0,0.0,0.0
12/09/2022,02:40:40,0.000,0.0,0.0,0.0
12/09/2022,02:41:41,0.000,0.0,0.0,0.0
12/09/2022,02:42:33,-0.001,0.0,0.0,0.0
12/09/2022,02:43:33,0.000,0.0,0.0,0.0
12/09/2022,02:44:32,0.000,0.0,0.0,0.0
12/09/2022,02:45:33,0.000,0.0,0.0,0.0
12/09/2022,02:46:32,-0.000,0.0,0.0,0.0
12/09/2022,02:47:32,0.001,0.0,0.0,0.0
12/09/2022,02:48:33,0.000,0.0,0.0,0.0
12/09/2022,02:49:33,0.000,0.0,0.0,0.0
12/09/2022,02:50:41,-0.001,0.0,0.0,0.0
12/09/2022,02:51:33,0.001,0.0,0.0,0.0
12/09/2022,02:52:33,0.000,0.0,0.0,0.0
12/09/2022,02:53:32,0.000,0.0,0.0,0.0
12/09/2022,02:54:32,-0.000,0.0,0.0,0.0
12/09/2022,02:55:33,0.000,0.0,0.0,0.0
12/09/2022,02:56:32,0.001,0.0,0.0,0.0
12/09/2022,02:57:32,0.000,0.0,0.0,0.0
12/09/2022,02:58:32,0.000,0.0,0.0,0.0
12/09/2022,02:59:32,0.000,0.0,0.0,0.0
12/09/2022,03:00:33,-0.001,0.0,0.0,0.0
12/09/2022,03:01:32,0.000,0.0,0.0,0.0
12/09/2022,03:02:32,0.000,0.0,0.0,0.0
12/09/2022,03:03:33,0.000,0.0,0.0,0.0
12/09/2022,03:04:32,-0.000,0.0,0.0,0.0
12/09/2022,03:05:40,0.000,0.0,0.0,0.0
12/09/2022,03:06:32,-0.001,0.0,0.0,0.0
12/09/2022,03:07:32,0.000,0.0,0.0,0.0
12/09/2022,03:08:32,0.000,0.0,0.0,0.0
12/09/2022,03:09:32,0.000,0.0,0.0,0.0
12/09/2022,03:10:33,0.000,0.0,0.0,0.0
12/09/2022,03:11:41,-0.001,0.0,0.0,0.0
12/09/2022,03:12:32,0.000,0.0,0.0,0.0
12/09/2022,03:13:32,0.001,0.0,0.0,0.0
12/09/2022,03:14:32,0.000,0.0,0.0,0.0
12/09/2022,03:15:33,-0.001,0.0,0.0,0.0
12/09/2022,03:16:33,0.000,0.0,0.0,0.0
12/09/2022,03:17:33,-0.000,0.0,0.0,0.0
12/09/2022,03:18:32,-0.001,0.0,0.0,0.0
12/09/2022,03:19:32,0.000,0.0,0.0,0.0
12/09/2022,03:20:33,0.000,0.0,0.0,0.0
12/09/2022,03:21:41,-0.001,0.0,0.0,0.0
12/09/2022,03:22:33,0.000,0.0,0.0,0.0
12/09/2022,03:23:34,-0.001,0.0,0.0,0.0
12/09/2022,03:24:33,0.001,0.0,0.0,0.0
12/09/2022,03:25:32,0.000,0.0,0.0,0.0
12/09/2022,03:26:33,-0.001,0.0,0.0,0.0
12/09/2022,03:27:32,0.001,0.0,0.0,0.0
12/09/2022,03:28:32,0.000,0.0,0.0,0.0
12/09/2022,03:29:32,0.000,0.0,0.0,0.0
12/09/2022,03:30:33,-0.000,0.0,0.0,0.0
12/09/2022,03:31:32,-0.000,0.0,0.0,0.0
12/09/2022,03:32:33,0.001,0.0,0.0,0.0
12/09/2022,03:33:40,0.000,0.0,0.0,0.0
12/09/2022,03:34:32,0.000,0.0,0.0,0.0
12/09/2022,03:35:32,0.000,0.0,0.0,0.0
12/09/2022,03:36:43,-0.000,0.0,0.0,0.0
12/09/2022,03:37:32,0.000,0.0,0.0,0.0
12/09/2022,03:38:33,0.000,0.0,0.0,0.0
12/09/2022,03:39:41,0.000,0.0,0.0,0.0
12/09/2022,03:40:33,0.000,0.0,0.0,0.0
12/09/2022,03:41:33,0.000,0.0,0.0,0.0
12/09/2022,03:42:33,0.000,0.0,0.0,0.0
12/09/2022,03:43:32,0.000,0.0,0.0,0.0
12/09/2022,03:44:32,0.000,0.0,0.0,0.0
12/09/2022,03:45:32,0.000,0.0,0.0,0.0
12/09/2022,03:46:33,-0.001,0.0,0.0,0.0
12/09/2022,03:47:32,-0.001,0.0,0.0,0.0
12/09/2022,03:48:32,0.001,0.0,0.0,0.0
12/09/2022,03:49:41,-0.001,0.0,0.0,0.0
12/09/2022,03:50:32,0.001,0.0,0.0,0.0
12/09/2022,03:51:33,-0.001,0.0,0.0,0.0
12/09/2022,03:52:32,0.000,0.0,0.0,0.0
12/09/2022,03:53:32,0.000,0.0,0.0,0.0
12/09/2022,03:54:33,0.000,0.0,0.0,0.0
12/09/2022,03:55:33,-0.001,0.0,0.0,0.0
12/09/2022,03:56:33,0.000,0.0,0.0,0.0
12/09/2022,03:57:33,-0.001,0.0,0.0,0.0
12/09/2022,03:58:32,0.000,0.0,0.0,0.0
12/09/2022,03:59:32,0.001,0.0,0.0,0.0
12/09/2022,04:00:32,0.001,0.0,0.0,0.0
12/09/2022,04:01:33,-0.001,0.0,0.0,0.0
12/09/2022,04:02:33,0.000,0.0,0.0,0.0
12/09/2022,04:03:33,0.000,0.0,0.0,0.0
12/09/2022,04:04:40,0.001,0.0,0.0,0.0
12/09/2022,04:05:32,-0.001,0.0,0.0,0.0
12/09/2022,04:06:32,0.000,0.0,0.0,0.0
12/09/2022,04:07:33,0.001,0.0,0.0,0.0
12/09/2022,04:08:49,0.000,0.0,0.0,0.0
12/09/2022,04:10:33,0.001,0.0,0.0,0.0
12/09/2022,04:11:33,-0.001,0.0,0.0,0.0
12/09/2022,04:12:32,-0.000,0.0,0.0,0.0
12/09/2022,04:13:32,0.000,0.0,0.0,0.0
12/09/2022,04:14:32,0.000,0.0,0.0,0.0
12/09/2022,04:15:33,0.000,0.0,0.0,0.0
12/09/2022,04:16:32,0.000,0.0,0.0,0.0
12/09/2022,04:17:32,-0.000,0.0,0.0,0.0
12/09/2022,04:18:33,-0.001,0.0,0.0,0.0
12/09/2022,04:19:32,-0.001,0.0,0.0,0.0
12/09/2022,04:20:41,0.000,0.0,0.0,0.0
12/09/2022,04:21:33,-0.000,0.0,0.0,0.0
12/09/2022,04:22:33,0.000,0.0,0.0,0.0
12/09/2022,04:23:32,0.000,0.0,0.0,0.0
12/09/2022,04:24:33,0.000,0.0,0.0,0.0
12/09/2022,04:25:33,0.001,0.0,0.0,0.0
12/09/2022,04:26:32,0.000,0.0,0.0,0.0
12/09/2022,04:27:32,0.001,0.0,0.0,0.0
12/09/2022,04:28:33,0.000,0.0,0.0,0.0
12/09/2022,04:29:33,-0.001,0.0,0.0,0.0
12/09/2022,04:30:32,0.000,0.0,0.0,0.0
12/09/2022,04:31:32,0.000,0.0,0.0,0.0
12/09/2022,04:32:41,0.000,0.0,0.0,0.0
12/09/2022,04:33:32,-0.000,0.0,0.0,0.0
12/09/2022,04:34:32,0.000,0.0,0.0,0.0
12/09/2022,04:35:33,0.000,0.0,0.0,0.0
12/09/2022,04:36:32,0.001,0.0,0.0,0.0
12/09/2022,04:37:32,0.001,0.0,0.0,0.0
12/09/2022,04:38:33,0.001,0.0,0.0,0.0
12/09/2022,04:39:32,0.000,0.0,0.0,0.0
12/09/2022,04:40:32,-0.000,0.0,0.0,0.0
12/09/2022,04:41:33,0.001,0.0,0.0,0.0
12/09/2022,04:42:33,0.001,0.0,0.0,0.0
12/09/2022,04:43:33,0.001,0.0,0.0,0.0
12/09/2022,04:44:32,0.000,0.0,0.0,0.0
12/09/2022,04:45:33,0.000,0.0,0.0,0.0
12/09/2022,04:46:33,-0.001,0.0,0.0,0.0
12/09/2022,04:47:32,-0.001,0.0,0.0,0.0
12/09/2022,04:48:32,0.000,0.0,0.0,0.0
12/09/2022,04:49:33,-0.001,0.0,0.0,0.0
12/09/2022,04:50:32,0.000,0.0,0.0,0.0
12/09/2022,04:51:33,-0.000,0.0,0.0,0.0
12/09/2022,04:52:32,0.001,0.0,0.0,0.0
12/09/2022,04:53:32,0.000,0.0,0.0,0.0
12/09/2022,04:54:33,0.000,0.0,0.0,0.0
12/09/2022,04:55:32,0.000,0.0,0.0,0.0
12/09/2022,04:56:33,0.001,0.0,0.0,0.0
12/09/2022,04:57:41,0.000,0.0,0.0,0.0
12/09/2022,04:58:33,0.000,0.0,0.0,0.0
12/09/2022,04:59:33,0.000,0.0,0.0,0.0
12/09/2022,05:00:32,0.000,0.0,0.0,0.0
12/09/2022,05:01:33,0.000,0.0,0.0,0.0
12/09/2022,05:02:33,0.000,0.0,0.0,0.0
12/09/2022,05:03:33,0.000,0.0,0.0,0.0
12/09/2022,05:04:33,-0.000,0.0,0.0,0.0
12/09/2022,05:05:32,0.000,0.0,0.0,0.0
12/09/2022,05:06:32,0.000,0.0,0.0,0.0
12/09/2022,05:07:41,0.000,0.0,0.0,0.0
12/09/2022,05:08:32,0.000,0.0,0.0,0.0
12/09/2022,05:09:33,0.000,0.0,0.0,0.0
12/09/2022,05:10:32,0.001,0.0,0.0,0.0
12/09/2022,05:11:32,0.001,0.0,0.0,0.0
12/09/2022,05:12:32,0.001,0.0,0.0,0.0
12/09/2022,05:13:40,0.000,0.0,0.0,0.0
12/09/2022,05:14:33,0.001,0.0,0.0,0.0
12/09/2022,05:15:33,-0.000,0.0,0.0,0.0
12/09/2022,05:16:32,0.001,0.0,0.0,0.0
12/09/2022,05:17:33,0.001,0.0,0.0,0.0
12/09/2022,05:18:32,0.001,0.0,0.0,0.0
12/09/2022,05:19:24,0.001,0.0,0.0,0.0
12/09/2022,05:20:33,0.001,0.0,0.0,0.0
12/09/2022,05:21:33,0.001,0.0,0.0,0.0
12/09/2022,05:22:33,0.001,0.0,0.0,0.0
12/09/2022,05:23:32,0.001,0.0,0.0,0.0
12/09/2022,05:24:32,0.001,0.0,0.0,0.0
12/09/2022,05:25:41,0.002,0.0,0.0,0.0
12/09/2022,05:26:32,0.001,0.0,0.0,0.0
12/09/2022,05:27:32,0.001,0.0,0.0,0.0
12/09/2022,05:28:33,0.002,0.0,0.0,0.0
12/09/2022,05:29:32,0.002,0.0,0.0,0.0
12/09/2022,05:30:32,0.001,0.0,0.0,0.0
12/09/2022,05:31:33,0.002,0.0,0.0,0.0
12/09/2022,05:32:32,0.002,0.0,0.0,0.0
12/09/2022,05:33:32,0.002,0.0,0.0,0.0
12/09/2022,05:34:33,0.002,0.0,0.0,0.0
12/09/2022,05:35:33,0.003,0.0,0.0,0.0
12/09/2022,05:36:32,0.003,0.0,0.0,0.0
12/09/2022,05:37:40,0.003,0.0,0.0,0.0
12/09/2022,05:38:32,0.003,0.0,0.0,0.0
12/09/2022,05:39:32,0.004,0.0,0.0,0.0
12/09/2022,05:40:33,0.004,0.0,0.0,0.0
12/09/2022,05:41:40,0.004,0.0,0.0,0.0
12/09/2022,05:42:33,0.004,0.0,0.0,0.0
12/09/2022,05:43:33,0.004,0.0,0.0,0.0
12/09/2022,05:44:41,0.005,0.0,0.0,0.0
12/09/2022,05:45:32,0.005,0.0,0.0,0.0
12/09/2022,05:46:32,0.005,0.0,0.0,0.0
12/09/2022,05:47:33,0.006,0.0,0.0,0.0
12/09/2022,05:48:32,0.006,0.0,0.0,0.0
12/09/2022,05:49:33,0.007,0.0,0.0,0.0
12/09/2022,05:50:33,0.006,0.0,0.0,0.0
12/09/2022,05:51:33,0.008,0.0,0.0,0.0
12/09/2022,05:52:33,0.007,0.0,0.0,0.0
12/09/2022,05:53:32,0.008,0.0,0.001,0.001
12/09/2022,05:54:33,0.009,0.0,0.001,0.0
12/09/2022,05:55:32,0.009,0.0,0.001,0.0
12/09/2022,05:56:41,0.009,0.0,0.001,0.0
12/09/2022,05:57:33,0.010,0.0,0.001,0.0
12/09/2022,05:58:32,0.010,0.0,0.001,0.0
12/09/2022,05:59:33,0.010,0.0,0.001,0.0
12/09/2022,06:00:33,0.010,0.0,0.002,0.001
12/09/2022,06:01:33,0.011,0.0,0.002,0.0
12/09/2022,06:02:32,0.011,0.0,0.002,0.0
12/09/2022,06:03:33,0.012,0.0,0.002,0.0
12/09/2022,06:04:33,0.012,0.0,0.002,0.0
12/09/2022,06:05:32,0.011,0.0,0.003,0.001
12/09/2022,06:06:41,0.012,0.0,0.003,0.0
12/09/2022,06:07:32,0.012,0.0,0.003,0.0
12/09/2022,06:08:33,0.012,0.0,0.003,0.0
12/09/2022,06:09:41,0.012,0.0,0.003,0.0
12/09/2022,06:10:33,0.012,0.0,0.004,0.001
12/09/2022,06:11:33,0.012,0.0,0.004,0.0
12/09/2022,06:12:41,0.012,0.0,0.004,0.0
12/09/2022,06:13:33,0.012,0.0,0.004,0.0
12/09/2022,06:14:33,0.013,0.0,0.004,0.0
12/09/2022,06:15:32,0.013,0.0,0.005,0.001
12/09/2022,06:16:32,0.014,0.0,0.005,0.0
12/09/2022,06:17:33,0.016,0.0,0.005,0.0
12/09/2022,06:18:32,0.016,0.0,0.005,0.0
12/09/2022,06:19:33,0.017,0.0,0.006,0.001
12/09/2022,06:20:32,0.019,0.0,0.006,0.0
12/09/2022,06:21:32,0.019,0.0,0.006,0.0
12/09/2022,06:22:33,0.021,0.0,0.007,0.001
12/09/2022,06:23:33,0.023,0.0,0.007,0.0
12/09/2022,06:24:33,0.025,0.0,0.007,0.0
12/09/2022,06:25:33,0.026,0.0,0.008,0.001
12/09/2022,06:26:32,0.028,0.0,0.008,0.0
12/09/2022,06:27:41,0.029,0.0,0.009,0.001
12/09/2022,06:28:32,0.030,0.0,0.009,0.0
12/09/2022,06:29:32,0.031,0.0,0.01,0.001
12/09/2022,06:30:26,0.033,0.0,0.01,0.0
12/09/2022,06:31:33,0.035,0.0,0.011,0.001
12/09/2022,06:32:33,0.036,0.0,0.011,0.0
12/09/2022,06:33:33,0.037,0.0,0.012,0.001
12/09/2022,06:34:33,0.037,0.0,0.012,0.0
12/09/2022,06:35:33,0.038,0.0,0.013,0.001
12/09/2022,06:36:33,0.041,0.0,0.014,0.001
12/09/2022,06:37:41,0.043,0.0,0.015,0.001
12/09/2022,06:38:32,0.045,0.0,0.015,0.0
12/09/2022,06:39:32,0.046,0.0,0.016,0.001
12/09/2022,06:40:33,0.049,0.0,0.017,0.001
12/09/2022,06:41:32,0.050,0.0,0.018,0.001
12/09/2022,06:42:32,0.052,0.0,0.018,0.0
12/09/2022,06:43:33,0.051,0.0,0.019,0.001
12/09/2022,06:44:33,0.054,0.0,0.02,0.001
12/09/2022,06:45:33,0.056,0.0,0.021,0.001
12/09/2022,06:46:32,0.058,0.0,0.022,0.001
12/09/2022,06:47:33,0.059,0.0,0.023,0.001
12/09/2022,06:48:33,0.060,0.0,0.024,0.001
12/09/2022,06:49:33,0.060,0.0,0.025,0.001
12/09/2022,06:50:33,0.064,0.0,0.026,0.001
12/09/2022,06:51:33,0.064,0.0,0.027,0.001
12/09/2022,06:52:33,0.066,0.0,0.028,0.001
12/09/2022,06:53:33,0.066,0.0,0.029,0.001
12/09/2022,06:54:33,0.067,0.0,0.03,0.001
12/09/2022,06:55:32,0.068,0.0,0.031,0.001
12/09/2022,06:56:33,0.067,0.0,0.033,0.002
12/09/2022,06:57:33,0.067,0.0,0.034,0.001
12/09/2022,06:58:33,0.066,0.0,0.035,0.001
12/09/2022,06:59:32,0.065,0.0,0.036,0.001
12/09/2022,07:00:33,0.065,0.0,0.037,0.001
12/09/2022,07:01:32,0.063,0.0,0.038,0.001
12/09/2022,07:02:33,0.062,0.0,0.039,0.001
12/09/2022,07:03:33,0.062,0.0,0.04,0.001
12/09/2022,07:04:32,0.058,0.0,0.041,0.001
12/09/2022,07:05:32,0.058,0.0,0.042,0.001
12/09/2022,07:06:33,0.058,0.0,0.043,0.001
12/09/2022,07:07:33,0.061,0.0,0.044,0.001
12/09/2022,07:08:41,0.064,0.0,0.045,0.001
12/09/2022,07:09:33,0.067,0.0,0.046,0.001
12/09/2022,07:10:33,0.071,0.0,0.047,0.001
12/09/2022,07:11:32,0.076,0.0,0.049,0.002
12/09/2022,07:12:33,0.079,0.0,0.05,0.001
12/09/2022,07:13:33,0.081,0.0,0.051,0.001
12/09/2022,07:14:33,0.084,0.0,0.053,0.002
12/09/2022,07:15:33,0.086,0.0,0.054,0.001
12/09/2022,07:16:33,0.089,0.0,0.055,0.001
12/09/2022,07:17:33,0.091,0.0,0.057,0.002
12/09/2022,07:18:41,0.094,0.0,0.059,0.002
12/09/2022,07:19:33,0.095,0.0,0.06,0.001
12/09/2022,07:20:33,0.098,0.0,0.062,0.002
12/09/2022,07:21:32,0.100,0.0,0.063,0.001
12/09/2022,07:22:33,0.102,0.0,0.065,0.002
12/09/2022,07:23:32,0.103,0.0,0.067,0.002
12/09/2022,07:24:33,0.107,0.0,0.068,0.001
12/09/2022,07:25:33,0.111,0.0,0.07,0.002
12/09/2022,07:26:33,0.115,0.0,0.072,0.002
12/09/2022,07:27:33,0.119,0.0,0.074,0.002
12/09/2022,07:28:33,0.126,0.0,0.076,0.002
12/09/2022,07:29:33,0.133,0.0,0.078,0.002
12/09/2022,07:30:33,0.140,0.0,0.081,0.003
12/09/2022,07:31:33,0.147,0.0,0.083,0.002
12/09/2022,07:32:33,0.153,0.0,0.086,0.003
12/09/2022,07:33:42,0.160,0.0,0.089,0.003
12/09/2022,07:34:31,0.165,0.0,0.091,0.002
12/09/2022,07:35:33,0.171,0.0,0.094,0.003
12/09/2022,07:36:41,0.177,0.0,0.097,0.003
12/09/2022,07:37:33,0.182,0.0,0.1,0.003
12/09/2022,07:38:33,0.190,0.0,0.103,0.003
12/09/2022,07:39:33,0.196,0.0,0.106,0.003
12/09/2022,07:40:33,0.203,0.0,0.109,0.003
12/09/2022,07:41:32,0.216,0.0,0.113,0.004
12/09/2022,07:42:32,0.218,1.0,0.116,0.003
12/09/2022,07:43:33,0.221,1.0,0.12,0.004
12/09/2022,07:44:33,0.224,1.0,0.124,0.004
12/09/2022,07:45:32,0.213,0.0,0.127,0.003
12/09/2022,07:46:33,0.212,0.0,0.131,0.004
12/09/2022,07:47:33,0.216,0.0,0.134,0.003
12/09/2022,07:48:33,0.218,1.0,0.138,0.004
12/09/2022,07:49:32,0.221,1.0,0.142,0.004
12/09/2022,07:50:33,0.226,1.0,0.146,0.004
12/09/2022,07:51:41,0.233,1.0,0.15,0.004
12/09/2022,07:52:33,0.246,1.0,0.153,0.003
12/09/2022,07:53:33,0.260,1.0,0.157,0.004
12/09/2022,07:54:33,0.267,1.0,0.162,0.005
12/09/2022,07:55:33,0.278,1.0,0.166,0.004
12/09/2022,07:56:33,0.283,1.0,0.171,0.005
12/09/2022,07:57:33,0.288,1.0,0.176,0.005
12/09/2022,07:58:33,0.285,1.0,0.181,0.005
12/09/2022,07:59:33,0.299,1.0,0.185,0.004
12/09/2022,08:00:33,0.307,1.0,0.19,0.005
12/09/2022,08:01:41,0.306,1.0,0.196,0.006
12/09/2022,08:02:33,0.300,1.0,0.201,0.005
12/09/2022,08:03:33,0.284,1.0,0.205,0.004
12/09/2022,08:04:32,0.256,1.0,0.21,0.005
12/09/2022,08:05:33,0.237,1.0,0.214,0.004
12/09/2022,08:06:33,0.226,1.0,0.218,0.004
12/09/2022,08:07:33,0.221,1.0,0.222,0.004
12/09/2022,08:08:33,0.219,1.0,0.225,0.003
12/09/2022,08:09:33,0.222,1.0,0.229,0.004
12/09/2022,08:10:33,0.227,1.0,0.233,0.004
12/09/2022,08:11:33,0.225,1.0,0.236,0.003
12/09/2022,08:12:33,0.216,0.0,0.24,0.004
12/09/2022,08:13:33,0.215,0.0,0.244,0.004
12/09/2022,08:14:33,0.212,0.0,0.247,0.003
12/09/2022,08:15:33,0.213,0.0,0.251,0.004
12/09/2022,08:16:41,0.216,0.0,0.255,0.004
12/09/2022,08:17:32,0.219,1.0,0.258,0.003
12/09/2022,08:18:33,0.222,1.0,0.262,0.004
12/09/2022,08:19:41,0.228,1.0,0.266,0.004
12/09/2022,08:20:32,0.231,1.0,0.269,0.003
12/09/2022,08:21:32,0.235,1.0,0.273,0.004
12/09/2022,08:22:33,0.242,1.0,0.277,0.004
12/09/2022,08:23:32,0.252,1.0,0.281,0.004
12/09/2022,08:24:33,0.265,1.0,0.285,0.004
12/09/2022,08:25:33,0.280,1.0,0.29,0.005
12/09/2022,08:26:33,0.293,1.0,0.295,0.005
12/09/2022,08:27:33,0.302,1.0,0.3,0.005
12/09/2022,08:28:33,0.311,1.0,0.305,0.005
12/09/2022,08:29:33,0.320,1.0,0.31,0.005
12/09/2022,08:30:32,0.330,1.0,0.316,0.006
12/09/2022,08:31:33,0.337,1.0,0.321,0.005
12/09/2022,08:32:33,0.347,1.0,0.327,0.006
12/09/2022,08:33:33,0.355,1.0,0.333,0.006
12/09/2022,08:34:33,0.364,1.0,0.339,0.006
12/09/2022,08:35:35,0.375,1.0,0.345,0.006
12/09/2022,08:36:33,0.388,1.0,0.351,0.006
12/09/2022,08:37:33,0.426,1.0,0.358,0.007
12/09/2022,08:38:33,0.480,1.0,0.366,0.008
12/09/2022,08:39:33,0.421,1.0,0.373,0.007
12/09/2022,08:40:33,0.430,1.0,0.38,0.007
12/09/2022,08:41:33,0.476,1.0,0.388,0.008
12/09/2022,08:42:33,0.489,1.0,0.396,0.008
12/09/2022,08:43:33,0.406,1.0,0.403,0.007
12/09/2022,08:44:41,0.388,1.0,0.411,0.008
12/09/2022,08:45:33,0.385,1.0,0.417,0.006
12/09/2022,08:46:33,0.375,1.0,0.423,0.006
12/09/2022,08:47:41,0.380,1.0,0.43,0.007
12/09/2022,08:48:32,0.388,1.0,0.436,0.006
12/09/2022,08:49:33,0.395,1.0,0.442,0.006
12/09/2022,08:50:41,0.401,1.0,0.45,0.008
12/09/2022,08:51:33,0.403,1.0,0.456,0.006
12/09/2022,08:52:33,0.400,1.0,0.462,0.006
12/09/2022,08:53:33,0.394,1.0,0.469,0.007
12/09/2022,08:54:33,0.438,1.0,0.476,0.007
12/09/2022,08:55:32,0.466,1.0,0.483,0.007
12/09/2022,08:56:33,0.427,1.0,0.49,0.007
12/09/2022,08:57:33,0.441,1.0,0.497,0.007
12/09/2022,08:58:33,0.403,1.0,0.504,0.007
12/09/2022,08:59:33,0.397,1.0,0.511,0.007
12/09/2022,09:00:33,0.403,1.0,0.518,0.007
12/09/2022,09:01:33,0.409,1.0,0.524,0.006
12/09/2022,09:02:33,0.424,1.0,0.531,0.007
12/09/2022,09:03:32,0.471,1.0,0.539,0.008
12/09/2022,09:04:33,0.452,1.0,0.546,0.007
12/09/2022,09:05:41,0.471,1.0,0.555,0.009
12/09/2022,09:06:33,0.480,1.0,0.562,0.007
12/09/2022,09:07:33,0.488,1.0,0.57,0.008
12/09/2022,09:08:33,0.471,1.0,0.578,0.008
12/09/2022,09:09:33,0.450,1.0,0.586,0.008
12/09/2022,09:10:33,0.442,1.0,0.593,0.007
12/09/2022,09:11:34,0.443,1.0,0.601,0.008
12/09/2022,09:12:33,0.449,1.0,0.608,0.007
12/09/2022,09:13:33,0.532,1.0,0.616,0.008
12/09/2022,09:14:33,0.483,1.0,0.624,0.008
12/09/2022,09:15:41,0.449,1.0,0.633,0.009
12/09/2022,09:16:33,0.447,1.0,0.639,0.006
12/09/2022,09:17:33,0.449,1.0,0.647,0.008
12/09/2022,09:18:33,0.451,1.0,0.654,0.007
12/09/2022,09:19:33,0.455,1.0,0.662,0.008
12/09/2022,09:20:33,0.462,1.0,0.67,0.008
12/09/2022,09:21:33,0.466,1.0,0.677,0.007
12/09/2022,09:22:33,0.469,1.0,0.685,0.008
12/09/2022,09:23:33,0.468,1.0,0.693,0.008
12/09/2022,09:24:33,0.471,1.0,0.701,0.008
12/09/2022,09:25:33,0.465,1.0,0.709,0.008
12/09/2022,09:26:33,0.439,1.0,0.716,0.007
12/09/2022,09:27:33,0.410,1.0,0.723,0.007
12/09/2022,09:28:32,0.386,1.0,0.73,0.007
12/09/2022,09:29:33,0.364,1.0,0.736,0.006
12/09/2022,09:30:42,0.333,1.0,0.743,0.007
12/09/2022,09:31:33,0.317,1.0,0.747,0.004
12/09/2022,09:32:33,0.301,1.0,0.752,0.005
12/09/2022,09:33:41,0.282,1.0,0.758,0.006
12/09/2022,09:34:33,0.269,1.0,0.762,0.004
12/09/2022,09:35:33,0.257,1.0,0.766,0.004
12/09/2022,09:36:35,0.256,1.0,0.771,0.005
12/09/2022,09:37:33,0.256,1.0,0.775,0.004
12/09/2022,09:38:33,0.263,1.0,0.779,0.004
12/09/2022,09:39:33,0.268,1.0,0.784,0.005
12/09/2022,09:40:33,0.276,1.0,0.788,0.004
12/09/2022,09:41:33,0.281,1.0,0.793,0.005
12/09/2022,09:42:32,0.287,1.0,0.797,0.004
12/09/2022,09:43:33,0.302,1.0,0.802,0.005
12/09/2022,09:44:33,0.324,1.0,0.808,0.006
12/09/2022,09:45:33,0.360,1.0,0.813,0.005
12/09/2022,09:46:33,0.406,1.0,0.82,0.007
12/09/2022,09:47:33,0.453,1.0,0.827,0.007
12/09/2022,09:48:41,0.493,1.0,0.836,0.009
12/09/2022,09:49:33,0.509,1.0,0.843,0.007
12/09/2022,09:50:33,0.518,1.0,0.852,0.009
12/09/2022,09:51:41,0.512,1.0,0.862,0.01
12/09/2022,09:52:33,0.505,1.0,0.869,0.007
12/09/2022,09:53:33,0.515,1.0,0.877,0.008
12/09/2022,09:54:42,0.533,1.0,0.887,0.01
12/09/2022,09:55:33,0.548,1.0,0.895,0.008
12/09/2022,09:56:33,0.550,1.0,0.904,0.009
12/09/2022,09:57:49,0.530,1.0,0.916,0.012
12/09/2022,09:59:33,0.456,1.0,0.93,0.014
12/09/2022,10:00:33,0.410,1.0,0.937,0.007
12/09/2022,10:01:50,0.359,1.0,0.945,0.008
12/09/2022,10:03:34,0.327,1.0,0.955,0.01
12/09/2022,10:04:33,0.320,1.0,0.96,0.005
12/09/2022,10:05:33,0.331,1.0,0.966,0.006